Location: Étang Rond
(42.7927°N, 1.0661°E)
Time: 01:57:11
(UTC+00:00)

Cosmos 1725 Rocket - Pass Details

Date: 08 November 2025
Orbit: 962 x 989 km, 82.9° (Epoch: 07 December)

Event Time Altitude Azimuth Distance (km) Brightness Sun altitude
Rises 04:56:32 0° 351° (N) 3,710 6.9 -19.0°
Reaches altitude 10° 04:59:04 10° 352° (N) 2,758 6.2 -18.5°
Maximum altitude 05:05:25 87° 264° (W) 996 4.0 -17.4°
Drops below altitude 10° 05:11:42 10° 176° (S) 2,735 6.5 -16.2°
Sets 05:14:12 0° 176° (S) 3,677 7.2 -15.8°
